THORAD DELTA 1 DEB, 42615

Orbit data source: Space-Track

THORAD DELTA 1 DEB, 42615 is space debris in SSO originally from a launch on Fri, 15 Nov 1974 UTC launched from the Air Force Western Test Range (AFWTR). Debris objects in space refer to the collection of defunct objects orbiting the Earth. Examples of debris include non-operational satellites, rocket bodies, and fragments generated from explosions, collisions, or faulty payload assembly.

Loading next visibility...
Identifier
42615, 1974-089GG
Orbit
SSO
Country
Flag of USUS
Related business
Manufacturer
Unknown
Mission
Spacecraft
Bus & Motor
Unknown
Mass
Unknown
Launch date (UTC)
1974-11-15 (51 years ago)
Launch vehicle
Unknown
Launch site
Air Force Western Test Range (AFWTR)
Object type
Payload
Rocket body
Debris
Shape & HBR
Unknown shape, 0.1 m
Radar Cross Section
Small (<0.1 m²)

Expand to show TLE details & history
Last TLE update: 2 days ago

TLE from 2 days ago
0 THORAD DELTA 1 DEB
1 42615U 74089GG  26061.18217918  .00000103  00000-0  84109-3 0  9997
2 42615 101.7811  49.9528 0075097 149.0390 273.7466 12.60748555564597
Epoch: 2026-03-02T04:22Z
TLE epoch observation values (Epoch: 2026-03-02T04:22:20.281Z)
Latitude
59.83314°
Longitude
163.46924°
Altitude
1,426.449 km
Speed
7.155 km/s
True Right ascension
01h 56m 07s
True Declination
59° 41' 47"
Sunlit
Object was in daylight at epoch
Visualization orbit readout
Latitude
Unknown
Longitude
Unknown
Altitude
Unknown
Speed
Unknown
Apparent Right ascension
Unknown
Apparent Declination
Unknown
Sunlit
N/A
Visualization observer readout
Local Sidereal Time
11:35:41
Azimuth
Unknown
Elevation
Unknown
Doppler factor
Unknown
Orbital elements
Apogee altitude
1,475.933 km
Perigee altitude
1,358.849 km
Semi-major axis
7,795.528 km
Eccentricity
0.00751
Inclination
101.7811°
RAAN
49.9528°
Arg. of periapsis
149.039°
True anomaly
272.8874°
Mean anomaly
273.7466°
Eccentric anomaly
273.31705°
Mean motion
3.15337 °/min
Orbital period
114.16 mins
BSTAR
0.00084109

Documentation

Showing up to 5 results
|